Location: Glion
(46.4330°N, 6.9246°E)
Time: 05:09:59
(UTC+00:00)

USA 307 - Pass Details

Date: 03 March 2021
Orbit: 567 x 577 km, 54.0° (Epoch: 22 April)

Event Time Altitude Azimuth Distance (km) Brightness Sun altitude
Rises 19:56:00 0° 297° (WNW) 2,785 7.7 -27.0°
Reaches altitude 10° 19:58:25 10° 307° (NW) 1,883 6.4 -27.4°
Enters shadow 20:01:21 30° 344° (NNW) 1,039 4.5 -27.9°
